FENGYUN 3G

Last updated on Sun Oct 26 2025 00:02:30 GMT+0000 (Coordinated Universal Time)

1 56232U 23055A 25298.53405912 .00036419 00000+0 58734-3 0 9990 2 56232 49.9931 115.9997 0020402 287.6008 72.2730 15.52278706143535
UTC large
Height (km)
Speed (km/s)
/
Latitude / Longitude
Inclination (degrees)
Orbital Period (minutes)
Azimuth
Elevation
Range (km)
Doppler Factor

Next 0 passes for location: London (51.5072 / 0.1276)

Sorry there are no passes over London.